Location: Remedello Sotto
(45.2500°N, 10.3667°E)
Time: 04:30:59
(UTC+00:00)

BREEZE-M DEB (TANK) - Pass Details

Date: 03 February 2023
Orbit: 328 x 16569 km, 49.5° (Epoch: 28 March)

Event Time Altitude Azimuth Distance (km) Brightness Sun altitude
Rises 16:48:10 0° 220° (SW) 13,065 10.4 -4.1°
Reaches altitude 10° 17:02:19 10° 218° (SW) 8,994 9.4 -6.5°
Maximum altitude 17:22:40 50° 152° (SSE) 1,879 4.9 -9.9°
Enters shadow 17:27:14 14° 79° (E) 2,231 4.7 -10.7°
